| time (UTC) | temp F | wind direction | speed MPH | gust MPH | rain 1hr in | rain 24hr in | rain mn in | humidity % | barometer mb |
| 20260507120523 | 47 | 328 | 1.0 | 4.0 | 0.00 | 0.00 | 0.00 | 96 | |
| 20260507115531 | 47 | 332 | 1.0 | 4.0 | 0.00 | 0.00 | 0.00 | 96 | |
| 20260507114526 | 47 | 333 | 2.0 | 4.0 | 0.00 | 0.00 | 0.00 | 96 | |
| 20260507113527 | 47 | 330 | 1.0 | 4.0 | 0.00 | 0.00 | 0.00 | 97 | |
| 20260507112523 | 47 | 341 | 2.0 | 4.0 | 0.00 | 0.00 | 0.00 | 97 | |
| 20260507111531 | 47 | 332 | 2.0 | 5.0 | 0.00 | 0.00 | 0.00 | 97 | |
| 20260507110523 | 47 | 345 | 3.0 | 7.0 | 0.00 | 0.00 | 0.00 | 96 | |
| 20260507105527 | 47 | 341 | 2.0 | 4.0 | 0.00 | 0.00 | 0.00 | 96 | |
| 20260507104524 | 47 | 337 | 3.0 | 6.0 | 0.00 | 0.00 | 0.00 | 96 | |
| 20260507103534 | 47 | 346 | 3.0 | 6.0 | 0.00 | 0.00 | 0.00 | 96 | |
| 20260507102526 | 47 | 343 | 4.0 | 7.0 | 0.00 | 0.00 | 0.00 | 96 | |
| 20260507101531 | 47 | 352 | 2.0 | 4.0 | 0.00 | 0.00 | 0.00 | 96 | |
| 20260507100527 | 47 | 344 | 3.0 | 5.0 | 0.00 | 0.00 | 0.00 | 96 | |
| 20260507095522 | 47 | 340 | 2.0 | 4.0 | 0.00 | 0.00 | 0.00 | 97 | |
| 20260507094523 | 47 | 341 | 3.0 | 5.0 | 0.00 | 0.00 | 0.00 | 97 | |
| 20260507093531 | 47 | 345 | 3.0 | 4.0 | 0.00 | 0.00 | 0.00 | 97 | |
| 20260507092523 | 47 | 345 | 3.0 | 7.0 | 0.00 | 0.00 | 0.00 | 96 | |
| 20260507091527 | 47 | 338 | 2.0 | 4.0 | 0.00 | 0.00 | 0.00 | 96 | |
| 20260507090523 | 47 | 351 | 3.0 | 7.0 | 0.00 | 0.00 | 0.00 | 96 | |
| 20260507085531 | 47 | 340 | 4.0 | 7.0 | 0.00 | 0.00 | 0.00 | 96 | |
| 20260507084523 | 47 | 353 | 3.0 | 7.0 | 0.00 | 0.00 | 0.00 | 97 | |
| 20260507083522 | 47 | 334 | 3.0 | 6.0 | 0.00 | 0.00 | 0.00 | 97 | |
| 20260507082522 | 47 | 355 | 3.0 | 5.0 | 0.00 | 0.00 | 0.00 | 97 | |
| 20260507081531 | 46 | 343 | 3.0 | 5.0 | 0.00 | 0.00 | 0.00 | 97 | |
| 20260507080526 | 46 | 353 | 4.0 | 7.0 | 0.00 | 0.00 | 0.00 | 97 | |
| 20260507075533 | 46 | 337 | 3.0 | 6.0 | 0.00 | 0.00 | 0.00 | 97 | |
| 20260507074523 | 46 | 341 | 3.0 | 6.0 | 0.00 | 0.00 | 0.00 | 97 | |
| 20260507073522 | 46 | 341 | 3.0 | 5.0 | 0.00 | 0.00 | 0.00 | 97 | |
| 20260507072523 | 46 | 341 | 3.0 | 7.0 | 0.00 | 0.00 | 0.00 | 97 | |
| 20260507071534 | 46 | 344 | 2.0 | 5.0 | 0.00 | 0.00 | 0.00 | 97 | |
| 20260507070523 | 46 | 346 | 3.0 | 8.0 | 0.00 | 0.00 | 0.00 | 97 | |
| 20260507065534 | 46 | 340 | 4.0 | 7.0 | 0.00 | 0.00 | 0.00 | 97 | |
| 20260507064523 | 46 | 348 | 4.0 | 7.0 | 0.00 | 0.00 | 0.00 | 97 | |
| 20260507063536 | 46 | 343 | 2.0 | 5.0 | 0.00 | 0.00 | 0.00 | 98 | |
| 20260507062526 | 46 | 347 | 2.0 | 6.0 | 0.00 | 0.00 | 0.00 | 98 | |
| 20260507061531 | 46 | 346 | 3.0 | 7.0 | 0.00 | 0.00 | 0.00 | 98 | |
| 20260507060527 | 47 | 340 | 2.0 | 3.0 | 0.00 | 0.00 | 0.00 | 98 | |
| 20260507055531 | 46 | 342 | 2.0 | 4.0 | 0.00 | 0.00 | 0.00 | 98 | |
| 20260507054538 | 46 | 343 | 3.0 | 8.0 | 0.00 | 0.00 | 0.00 | 98 | |
| 20260507053531 | 47 | 341 | 2.0 | 4.0 | 0.00 | 0.00 | 0.00 | 98 | |
| 20260507052524 | 47 | 339 | 1.0 | 4.0 | 0.00 | 0.00 | 0.00 | 98 | |
| 20260507051531 | 47 | 337 | 2.0 | 3.0 | 0.00 | 0.00 | 0.00 | 98 | |
| 20260507050523 | 47 | 339 | 2.0 | 4.0 | 0.00 | 0.00 | 0.00 | 98 | |
| 20260507045534 | 47 | 319 | 1.0 | 2.0 | 0.00 | 0.00 | 0.00 | 98 | |
| 20260507044525 | 47 | 356 | 2.0 | 6.0 | 0.00 | 0.00 | 0.00 | 98 | |
| 20260507043529 | 47 | 341 | 3.0 | 7.0 | 0.00 | 0.00 | 0.00 | 98 | |
| 20260507042522 | 47 | 341 | 2.0 | 7.0 | 0.00 | 0.00 | 0.00 | 98 | |
| 20260507041530 | 47 | 343 | 1.0 | 4.0 | 0.00 | 0.00 | 0.00 | 98 | |
| 20260507040523 | 47 | 352 | 2.0 | 7.0 | 0.00 | 0.00 | 0.00 | 98 | |
| 20260507035532 | 47 | 337 | 2.0 | 5.0 | 0.00 | 0.00 | 0.00 | 98 | |
| 20260507034527 | 47 | 351 | 2.0 | 4.0 | 0.00 | 0.00 | 0.00 | 98 | |
| 20260507033534 | 47 | 353 | 1.0 | 4.0 | 0.00 | 0.00 | 0.00 | 98 | |
| 20260507032523 | 47 | 344 | 2.0 | 4.0 | 0.00 | 0.00 | 0.00 | 98 | |
| 20260507031527 | 47 | 337 | 2.0 | 4.0 | 0.00 | 0.00 | 0.00 | 98 | |
| 20260507030522 | 47 | 341 | 1.0 | 3.0 | 0.00 | 0.00 | 0.00 | 98 | |
| 20260507025522 | 47 | 328 | 1.0 | 2.0 | 0.00 | 0.00 | 0.00 | 98 | |
| 20260507024522 | 47 | 344 | 1.0 | 4.0 | 0.00 | 0.00 | 0.00 | 98 | |
| 20260507023534 | 47 | 345 | 2.0 | 3.0 | 0.00 | 0.00 | 0.00 | 98 | |
| 20260507022526 | 47 | 343 | 2.0 | 3.0 | 0.00 | 0.00 | 0.00 | 98 | |
| 20260507021531 | 47 | 339 | 2.0 | 3.0 | 0.00 | 0.00 | 0.00 | 98 | |
| 20260507020523 | 47 | 341 | 2.0 | 4.0 | 0.00 | 0.00 | 0.00 | 98 | |
| 20260507015533 | 47 | 345 | 3.0 | 7.0 | 0.00 | 0.00 | 0.00 | 98 | |
| 20260507014523 | 47 | 326 | 2.0 | 4.0 | 0.00 | 0.00 | 0.00 | 98 | |
| 20260507013527 | 47 | 349 | 2.0 | 4.0 | 0.00 | 0.00 | 0.00 | 98 | |
| 20260507012523 | 47 | 340 | 3.0 | 4.0 | 0.00 | 0.00 | 0.00 | 98 | |
| 20260507011534 | 47 | 338 | 3.0 | 4.0 | 0.00 | 0.00 | 0.00 | 98 | |
| 20260507010522 | 47 | 341 | 2.0 | 4.0 | 0.00 | 0.00 | 0.00 | 98 | |
| 20260507005536 | 47 | 338 | 2.0 | 4.0 | 0.00 | 0.00 | 0.00 | 98 | |
| 20260507004533 | 47 | 343 | 3.0 | 6.0 | 0.00 | 0.01 | 0.00 | 98 | |
| 20260507003546 | 47 | 340 | 3.0 | 4.0 | 0.00 | 0.02 | 0.00 | 98 | |
| 20260507002525 | 47 | 349 | 2.0 | 4.0 | 0.00 | 0.04 | 0.00 | 98 | |
| 20260507001519 | 47 | 334 | 2.0 | 5.0 | 0.00 | 0.06 | 0.00 | 98 | |
| 20260507000523 | 47 | 333 | 2.0 | 4.0 | 0.00 | 0.07 | 0.00 | 98 | |
| 20260506235521 | 47 | 343 | 2.0 | 4.0 | 0.00 | 0.09 | 0.00 | 98 | |
| 20260506234523 | 47 | 346 | 2.0 | 4.0 | 0.00 | 0.12 | 0.00 | 98 | |
| 20260506233534 | 48 | 338 | 2.0 | 5.0 | 0.00 | 0.13 | 0.00 | 98 | |
| 20260506232527 | 48 | 333 | 3.0 | 4.0 | 0.00 | 0.14 | 0.00 | 98 | |
| 20260506231534 | 48 | 337 | 2.0 | 4.0 | 0.00 | 0.15 | 0.00 | 99 | |
| 20260506230526 | 48 | 344 | 2.0 | 4.0 | 0.00 | 0.17 | 0.00 | 99 | |
| 20260506225533 | 48 | 346 | 1.0 | 3.0 | 0.00 | 0.18 | 0.00 | 99 | |
| 20260506224526 | 48 | 331 | 2.0 | 4.0 | 0.00 | 0.19 | 0.00 | 99 | |
| 20260506223533 | 48 | 334 | 2.0 | 5.0 | 0.00 | 0.20 | 0.00 | 99 | |
| 20260506222523 | 48 | 345 | 2.0 | 4.0 | 0.00 | 0.21 | 0.00 | 99 | |
| 20260506221534 | 48 | 337 | 2.0 | 4.0 | 0.00 | 0.21 | 0.00 | 99 | |
| 20260506220523 | 48 | 344 | 2.0 | 4.0 | 0.00 | 0.22 | 0.00 | 99 | |
| 20260506215527 | 48 | 338 | 2.0 | 4.0 | 0.00 | 0.24 | 0.24 | 99 | |
| 20260506214524 | 48 | 342 | 2.0 | 4.0 | 0.00 | 0.24 | 0.24 | 99 | |
| 20260506213525 | 48 | 347 | 2.0 | 4.0 | 0.00 | 0.25 | 0.24 | 98 | |
| 20260506212525 | 48 | 331 | 2.0 | 4.0 | 0.00 | 0.26 | 0.24 | 98 | |
| 20260506211534 | 48 | 344 | 2.0 | 3.0 | 0.00 | 0.26 | 0.24 | 98 | |
| 20260506210523 | 48 | 340 | 2.0 | 4.0 | 0.00 | 0.27 | 0.24 | 98 | |
| 20260506205531 | 48 | 342 | 2.0 | 4.0 | 0.00 | 0.27 | 0.24 | 98 | |
| 20260506204524 | 49 | 346 | 2.0 | 4.0 | 0.00 | 0.28 | 0.24 | 98 | |
| 20260506203531 | 48 | 337 | 2.0 | 4.0 | 0.00 | 0.28 | 0.24 | 98 | |
| 20260506202525 | 49 | 346 | 2.0 | 4.0 | 0.00 | 0.30 | 0.24 | 98 | |
| 20260506201531 | 49 | 351 | 2.0 | 4.0 | 0.00 | 0.30 | 0.24 | 98 | |
| 20260506200526 | 49 | 348 | 3.0 | 5.0 | 0.00 | 0.30 | 0.24 | 98 | |
| 20260506195525 | 49 | 349 | 3.0 | 4.0 | 0.00 | 0.31 | 0.24 | 98 | |
| 20260506194526 | 49 | 341 | 2.0 | 4.0 | 0.00 | 0.31 | 0.24 | 98 | |
| 20260506193534 | 49 | 346 | 2.0 | 4.0 | 0.00 | 0.31 | 0.24 | 98 | |
| 20260506192523 | 49 | 334 | 2.0 | 3.0 | 0.00 | 0.31 | 0.24 | 98 | |
| 20260506191531 | 49 | 343 | 2.0 | 4.0 | 0.00 | 0.31 | 0.24 | 97 | |
| 20260506190523 | 49 | 337 | 2.0 | 4.0 | 0.00 | 0.31 | 0.24 | 97 | |
| 20260506185524 | 50 | 340 | 2.0 | 4.0 | 0.00 | 0.31 | 0.24 | 97 | |
| 20260506184523 | 50 | 340 | 2.0 | 4.0 | 0.00 | 0.31 | 0.24 | 97 | |
| 20260506183530 | 50 | 342 | 2.0 | 4.0 | 0.00 | 0.31 | 0.24 | 97 | |
| 20260506182523 | 50 | 347 | 2.0 | 5.0 | 0.00 | 0.31 | 0.24 | 97 | |
| 20260506181534 | 50 | 338 | 2.0 | 3.0 | 0.00 | 0.31 | 0.24 | 97 | |
| 20260506180523 | 50 | 341 | 2.0 | 4.0 | 0.00 | 0.31 | 0.24 | 97 | |
| 20260506175524 | 50 | 346 | 3.0 | 5.0 | 0.00 | 0.31 | 0.24 | 97 | |
| 20260506174523 | 51 | 341 | 2.0 | 4.0 | 0.00 | 0.31 | 0.24 | 97 | |
| 20260506173531 | 51 | 342 | 2.0 | 4.0 | 0.00 | 0.31 | 0.24 | 97 | |
| 20260506172522 | 51 | 336 | 2.0 | 4.0 | 0.00 | 0.31 | 0.24 | 97 | |
| 20260506171531 | 51 | 340 | 2.0 | 4.0 | 0.00 | 0.31 | 0.24 | 97 | |
| 20260506170526 | 51 | 338 | 2.0 | 4.0 | 0.00 | 0.31 | 0.24 | 97 | |
| 20260506165531 | 51 | 347 | 3.0 | 5.0 | 0.00 | 0.31 | 0.24 | 97 | |
| 20260506164526 | 51 | 340 | 2.0 | 4.0 | 0.00 | 0.31 | 0.24 | 97 | |
| 20260506163529 | 51 | 337 | 2.0 | 4.0 | 0.00 | 0.31 | 0.24 | 97 | |
| 20260506162523 | 51 | 344 | 2.0 | 4.0 | 0.00 | 0.31 | 0.24 | 97 | |
| 20260506161521 | 51 | 334 | 2.0 | 4.0 | 0.00 | 0.31 | 0.24 | 97 | |
| 20260506160523 | 51 | 349 | 3.0 | 5.0 | 0.00 | 0.31 | 0.24 | 97 | |
| 20260506155534 | 52 | 346 | 3.0 | 6.0 | 0.00 | 0.31 | 0.24 | 97 | |
| 20260506154522 | 52 | 341 | 3.0 | 4.0 | 0.00 | 0.31 | 0.24 | 97 | |
| 20260506153531 | 53 | 337 | 1.0 | 3.0 | 0.00 | 0.31 | 0.24 | 97 | |
| 20260506152526 | 52 | 350 | 2.0 | 3.0 | 0.00 | 0.31 | 0.24 | 96 | |
| 20260506151533 | 53 | 344 | 1.0 | 4.0 | 0.00 | 0.31 | 0.24 | 96 | |
| 20260506150524 | 53 | 356 | 0.0 | 3.0 | 0.00 | 0.31 | 0.24 | 96 | |
| 20260506145534 | 53 | 336 | 2.0 | 4.0 | 0.00 | 0.31 | 0.24 | 96 | |
| 20260506144523 | 53 | 346 | 3.0 | 5.0 | 0.00 | 0.31 | 0.24 | 96 | |
| 20260506143526 | 53 | 352 | 2.0 | 5.0 | 0.00 | 0.31 | 0.24 | 96 | |
| 20260506142523 | 53 | 337 | 1.0 | 4.0 | 0.00 | 0.31 | 0.24 | 96 | |
| 20260506141534 | 53 | 342 | 3.0 | 5.0 | 0.00 | 0.31 | 0.24 | 96 | |
| 20260506140527 | 53 | 334 | 2.0 | 5.0 | 0.00 | 0.31 | 0.24 | 96 | |
| 20260506135531 | 53 | 349 | 2.0 | 4.0 | 0.00 | 0.31 | 0.24 | 97 | |
| 20260506134524 | 53 | 340 | 2.0 | 5.0 | 0.00 | 0.31 | 0.24 | 97 | |
| 20260506133525 | 53 | 344 | 2.0 | 4.0 | 0.00 | 0.31 | 0.24 | 97 | |
| 20260506132522 | 52 | 352 | 3.0 | 6.0 | 0.00 | 0.31 | 0.24 | 97 | |
| 20260506131534 | 52 | 346 | 2.0 | 5.0 | 0.00 | 0.31 | 0.24 | 97 | |
| 20260506130522 | 52 | 339 | 2.0 | 4.0 | 0.00 | 0.31 | 0.24 | 97 | |
| 20260506125522 | 52 | 351 | 3.0 | 6.0 | 0.00 | 0.31 | 0.24 | 97 | |
| 20260506124523 | 52 | 345 | 2.0 | 4.0 | 0.00 | 0.31 | 0.24 | 97 | |
| 20260506123533 | 52 | 332 | 2.0 | 5.0 | 0.00 | 0.31 | 0.24 | 97 | |
| 20260506122526 | 52 | 338 | 2.0 | 5.0 | 0.00 | 0.31 | 0.24 | 96 | |
| 20260506121534 | 52 | 331 | 2.0 | 4.0 | 0.00 | 0.31 | 0.24 | 96 |